Weather observations for the past three days for
Poteau, Robert S Kerr Airport
Imperial (Metric)
Date Time (cdt) Wind (mph) Vis. (mi.) Weather Sky Cond. Temperature (ºF) Relative Humidity Wind Chill (°F) Heat Index (°F) Pressure Precipitation (in)
Air Dwpt 6 hour altimeter (in) sea level (mb) 1 hr 3 hr 6 hr
Max. Min.
24 00:35 Calm 7.00 Fair CLR 71.6 71.6 100% 30.1 0.0
24 00:15 Calm 10.00 Fair CLR 71.6 69.8 94% 30.1 0.0
23 23:55 Calm 10.00 Fair CLR 73.4 71.6 94% 30.1 0.0
23 23:35 Calm 10.00 Fair CLR 73.4 71.6 94% 30.09 0.0
23 23:15 Calm 10.00 Fair CLR 73.4 71.6 94% 30.09 0.0
23 22:55 Calm 10.00 Fair CLR 73.4 71.6 94% 30.09 0.0
23 22:35 SE 3 10.00 Fair CLR 73.4 71.6 94% 30.08 0.0
23 22:15 Calm 10.00 Fair CLR 75.2 71.6 89% 75 30.08 0.0
23 21:55 Calm 10.00 Fair CLR 75.2 71.6 89% 75 30.07 0.0
23 21:35 Calm 10.00 Fair CLR 77 71.6 83% 78 30.07 0.0
23 21:15 E 3 7.00 Fair CLR 77 71.6 83% 78 30.06 0.0
23 20:55 Calm 10.00 Fair CLR 78.8 71.6 79% 82 30.05 0.0
23 20:35 Calm 10.00 Fair CLR 78.8 71.6 79% 82 30.04 0.0
23 20:15 Calm 10.00 Fair CLR 80.6 71.6 74% 85 30.03 0.0
23 19:55 S 3 10.00 Fair CLR 80.6 71.6 74% 85 30.03 0.0
23 19:35 S 6 10.00 Fair CLR 82.4 69.8 66% 86 30.03 0.0
23 19:15 S 6 10.00 Fair CLR 82.4 69.8 66% 86 30.03 0.0
23 18:55 S 7 10.00 Fair CLR 82.4 69.8 66% 86 30.03 0.0
23 18:35 S 7 10.00 Fair CLR 82.4 69.8 66% 86 30.03 0.0
23 18:15 S 6 10.00 Fair CLR 84.2 71.6 66% 90 30.03 0.0
23 17:55 SW 6 10.00 Fair CLR 84.2 69.8 62% 88 30.03 0.0
23 17:35 S 6 10.00 Fair CLR 84.2 69.8 62% 88 30.03 0.0
23 17:15 S 8 10.00 Fair CLR 84.2 69.8 62% 88 30.03 0.0
23 16:55 S 8 10.00 Fair CLR 82.4 71.6 70% 87 30.03 0.0
23 16:35 S 8 10.00 Fair CLR 80.6 69.8 70% 84 30.05 0.0
23 16:15 S 8 10.00 Fair CLR 82.4 69.8 66% 86 30.04 0.0
23 15:55 S 8 10.00 Fair CLR 82.4 69.8 66% 86 30.04 0.0
23 15:15 S 13 10.00 Fair CLR 86 69.8 59% 91 30.05 0.0
23 14:55 S 12 G 20 10.00 Fair CLR 82.4 71.6 70% 87 30.05 0.0
23 14:35 Calm 10.00 Fair CLR 86 69.8 59% 91 30.05 0.0
23 14:15 NW 3 10.00 Fair CLR 86 69.8 59% 91 30.04 0.0
23 13:55 Calm 10.00 Partly Cloudy SCT110 86 69.8 59% 91 30.05 0.0
23 13:35 Calm 10.00 Mostly Cloudy BKN100 86 69.8 59% 91 30.06 0.0
23 13:15 N 3 10.00 Partly Cloudy SCT026 SCT100 84.2 71.6 66% 90 30.06 0.0
23 12:55 NE 3 10.00 Partly Cloudy SCT100 84.2 69.8 62% 88 30.07 0.0
23 12:35 E 6 10.00 Partly Cloudy SCT017 SCT100 82.4 71.6 70% 87 30.07 0.0
23 12:15 E 8 10.00 Partly Cloudy SCT017 SCT024 82.4 71.6 70% 87 30.08 0.0
23 11:55 E 7 10.00 Fair CLR 80.6 71.6 74% 85 30.08 0.0
23 11:35 NE 3 10.00 Partly Cloudy SCT015 SCT020 SCT025 80.6 71.6 74% 85 30.08 0.0
23 11:15 Calm 10.00 Mostly Cloudy BKN015 BKN019 BKN025 80.6 71.6 74% 85 30.08 0.0
23 10:55 Calm 10.00 Partly Cloudy SCT011 SCT018 78.8 71.6 79% 82 30.07 0.0
23 10:35 Calm 10.00 Mostly Cloudy BKN008 BKN013 77 71.6 83% 78 30.07 0.0
23 10:15 Calm 10.00 Overcast OVC006 77 71.6 83% 78 30.07 0.0
23 09:55 Calm 10.00 Overcast OVC006 75.2 71.6 89% 75 30.07 0.0
23 09:35 Calm 10.00 Overcast OVC004 73.4 71.6 94% 30.06 0.0
23 09:15 Calm 10.00 Overcast OVC004 73.4 69.8 89% 30.06 0.0
23 08:55 Calm 10.00 Overcast OVC004 73.4 69.8 89% 30.06 0.0
23 08:35 Calm 7.00 Overcast OVC004 73.4 69.8 89% 30.06 0.0
23 08:15 Calm 7.00 Overcast OVC004 71.6 69.8 94% 30.06 0.0
23 07:55 Calm 5.00 Fog/Mist OVC002 71.6 69.8 94% 30.05 0.0
23 07:35 Calm 5.00 Fog/Mist OVC002 71.6 69.8 94% 30.05 0.0
23 07:15 Calm 1.25 Fog/Mist OVC002 71.6 69.8 94% 30.05 0.0
23 06:55 Calm 2.00 Fog/Mist OVC002 71.6 69.8 94% 30.04 0.0
23 06:35 Calm 4.00 Fog/Mist OVC002 71.6 69.8 94% 30.03 0.0
23 06:15 Calm 2.50 Fog/Mist SCT002 BKN006 BKN070 71.6 69.8 94% 30.03 0.0
23 05:55 Calm 5.00 Fog/Mist SCT002 SCT070 SCT110 71.6 69.8 94% 30.03 0.0
23 05:35 Calm 5.00 Fog/Mist SCT110 71.6 69.8 94% 30.02 0.0
23 05:15 S 3 5.00 Fog/Mist CLR 71.6 69.8 94% 30.01 0.0
23 04:55 Calm 5.00 Fog/Mist CLR 71.6 69.8 94% 30.01 0.0 0.01
23 04:35 W 3 5.00 Fog/Mist SCT004 71.6 69.8 94% 30 0.0 0.01
23 04:15 Calm 7.00 Partly Cloudy SCT004 SCT009 71.6 69.8 94% 30.01 0.0
23 03:55 Calm 7.00 Overcast OVC007 71.6 69.8 94% 30 0.0
23 03:35 Calm 7.00 Mostly Cloudy BKN005 73.4 71.6 94% 30 0.0
23 03:15 Calm 7.00 Partly Cloudy SCT003 73.4 71.6 94% 30 0.0
23 02:55 Calm 7.00 Partly Cloudy SCT120 73.4 71.6 94% 29.99 0.0
23 02:35 Calm 7.00 Mostly Cloudy BKN110 73.4 71.6 94% 29.99 0.0
23 02:15 Calm 7.00 Mostly Cloudy BKN110 73.4 71.6 94% 29.99 0.0
23 01:55 Calm 7.00 Light Drizzle SCT038 OVC110 73.4 71.6 94% 30 0.0 0.03
23 01:35 Calm 5.00 Rain SCT038 OVC100 73.4 71.6 94% 30 0.0 0.02
23 01:15 SW 9 10.00 Overcast SCT034 SCT047 OVC110 73.4 71.6 94% 30.01 0.0
23 00:55 Calm 10.00 Overcast BKN032 BKN047 OVC120 73.4 71.6 94% 30.01 0.0
23 00:35 Calm 10.00 Overcast OVC032 73.4 71.6 94% 30.01 0.0
23 00:15 Calm 10.00 Mostly Cloudy SCT032 SCT040 BKN049 73.4 71.6 94% 30.01 0.0
22 23:55 Calm 10.00 Mostly Cloudy SCT034 SCT040 BKN048 73.4 71.6 94% 30.01 0.0
22 23:35 Calm 10.00 Partly Cloudy SCT034 75.2 71.6 89% 75 30.01 0.0
22 23:15 Calm 10.00 Partly Cloudy SCT036 SCT120 75.2 71.6 89% 75 30.01 0.0
22 22:55 Calm 10.00 Mostly Cloudy BKN036 BKN070 75.2 71.6 89% 75 30.01 0.0
22 22:35 Calm 10.00 Partly Cloudy SCT040 77 71.6 83% 78 30.01 0.0
22 22:15 Calm 10.00 Partly Cloudy SCT032 SCT120 75.2 71.6 89% 75 30.01 0.0
22 21:55 Calm 5.00 Fog/Mist BKN120 77 71.6 83% 78 30 0.0
22 21:35 Calm 10.00 Overcast OVC120 75.2 71.6 89% 75 29.99 0.0
22 21:15 Calm 10.00 Mostly Cloudy BKN120 77 71.6 83% 78 29.99 0.0
22 20:55 Calm 10.00 Fair CLR 77 71.6 83% 78 29.98 0.0
22 20:35 SE 7 10.00 Fair CLR 77 71.6 83% 78 29.98 0.0
22 20:15 Calm 10.00 Fair CLR 78.8 71.6 79% 82 29.98 0.0
22 19:55 SE 7 10.00 Fair CLR 80.6 71.6 74% 85 29.97 0.0
22 19:35 SE 8 10.00 Partly Cloudy SCT120 80.6 71.6 74% 85 29.97 0.0
22 19:15 SE 6 10.00 Overcast OVC120 82.4 71.6 70% 87 29.97 0.0
22 18:55 SE 7 10.00 Overcast OVC110 82.4 71.6 70% 87 29.97 0.0
22 18:35 SE 9 10.00 Overcast SCT080 SCT090 OVC110 80.6 71.6 74% 85 29.97 0.0
22 18:15 SE 6 10.00 Overcast SCT075 OVC090 80.6 69.8 70% 84 29.97 0.0
22 17:55 E 3 10.00 Overcast SCT027 BKN060 OVC080 80.6 71.6 74% 85 29.96 0.0
22 17:35 SE 8 10.00 Mostly Cloudy SCT027 BKN032 BKN043 82.4 69.8 66% 86 29.97 0.0
22 17:15 E 3 10.00 Partly Cloudy SCT027 SCT043 82.4 69.8 66% 86 29.97 0.0
22 16:55 Calm 10.00 Partly Cloudy SCT025 SCT040 SCT075 82.4 69.8 66% 86 29.97 0.0
22 16:35 E 5 10.00 Mostly Cloudy BKN025 BKN030 BKN040 82.4 69.8 66% 86 29.97 0.0
22 16:15 SE 6 10.00 Partly Cloudy SCT027 SCT032 82.4 71.6 70% 87 29.98 0.0
22 15:55 SE 7 10.00 Partly Cloudy SCT028 82.4 69.8 66% 86 29.99 0.0
22 15:35 NE 5 10.00 Partly Cloudy SCT025 SCT095 SCT120 82.4 69.8 66% 86 29.99 0.0
22 15:15 Calm 10.00 Mostly Cloudy BKN023 BKN095 80.6 69.8 70% 84 30 0.0
22 14:55 E 6 10.00 Mostly Cloudy BKN021 BKN030 BKN095 82.4 69.8 66% 86 30.01 0.0
22 14:35 NE 3 10.00 Mostly Cloudy SCT021 SCT046 BKN070 80.6 71.6 74% 85 30.01 0.0
22 14:15 SE 8 10.00 Overcast SCT019 BKN044 OVC095 80.6 71.6 74% 85 30.01 0.0
22 13:55 NE 3 10.00 Overcast BKN019 OVC028 80.6 69.8 70% 84 30.02 0.0
22 13:35 Calm 10.00 Overcast BKN015 OVC024 80.6 71.6 74% 85 30.03 0.0
22 13:15 N 3 10.00 Mostly Cloudy BKN013 BKN019 BKN046 78.8 71.6 79% 82 30.03 0.0
22 12:55 NE 3 10.00 Mostly Cloudy SCT013 BKN044 BKN090 78.8 71.6 79% 82 30.04 0.0
22 12:35 Calm 10.00 Overcast SCT013 SCT044 OVC090 77 69.8 79% 79 30.05 0.0
22 12:15 Calm 10.00 Overcast OVC042 77 69.8 79% 79 30.05 0.0
22 11:55 Calm 10.00 Overcast SCT011 BKN042 OVC055 77 69.8 79% 79 30.06 0.0
22 11:35 Calm 10.00 Overcast BKN011 OVC042 77 69.8 79% 79 30.06 0.0
22 11:15 Calm 10.00 Overcast SCT009 BKN012 OVC042 75.2 71.6 89% 75 30.06 0.0
22 10:55 Calm 10.00 Overcast SCT009 BKN048 OVC055 75.2 71.6 89% 75 30.06 0.0
22 10:35 Calm 10.00 Light Rain SCT009 BKN042 OVC050 73.4 69.8 89% 30.06 0.0
22 10:15 Calm 10.00 Overcast BKN044 OVC050 73.4 69.8 89% 30.06 0.0
22 09:55 Calm 10.00 Mostly Cloudy BKN042 BKN050 BKN100 73.4 69.8 89% 30.06 0.0 0.02
22 09:35 Calm 10.00 Mostly Cloudy SCT003 SCT028 BKN055 73.4 69.8 89% 30.05 0.0 0.02
22 09:15 Calm 0.75 Rain SCT029 BKN049 OVC060 71.6 69.8 94% 30.05 0.0 0.01
22 08:55 Calm 2.50 Rain SCT022 BKN050 OVC085 71.6 69.8 94% 30.05 0.0 0.26
22 08:35 SW 6 3.00 Heavy Rain SCT004 BKN060 OVC090 71.6 69.8 94% 30.05 0.0 0.12
22 08:15 SW 5 10.00 Drizzle SCT004 SCT039 OVC090 71.6 69.8 94% 30.04 0.0 0.01
22 07:55 S 3 3.00 Heavy Rain SCT003 BKN070 OVC100 71.6 69.8 94% 30.03 0.0 0.04
22 07:35 S 3 10.00 Overcast SCT003 BKN042 OVC055 71.6 69.8 94% 30.03 0.0
22 07:15 Calm 10.00 Overcast OVC042 71.6 69.8 94% 30.02 0.0
22 06:55 Calm 7.00 Overcast BKN042 BKN048 OVC060 71.6 69.8 94% 30.02 0.0 0.01
22 06:35 Calm 7.00 Overcast BKN046 BKN060 OVC085 71.6 69.8 94% 30.01 0.0 0.01
22 06:15 Calm 7.00 Thunderstorm Light Rain in Vicinity SCT046 SCT050 OVC095 71.6 69.8 94% 30.01 0.0 0.01
22 05:55 Calm 10.00 Drizzle SCT038 OVC044 71.6 69.8 94% 30.01 0.0
22 05:35 S 5 10.00 Overcast BKN037 OVC044 71.6 69.8 94% 30.02 0.0
22 05:15 Calm 10.00 Light Rain BKN046 OVC050 71.6 69.8 94% 30.01 0.0
22 04:55 Calm 10.00 Mostly Cloudy SCT046 SCT070 BKN110 71.6 69.8 94% 30 0.0
22 04:35 Calm 10.00 Mostly Cloudy SCT043 BKN110 71.6 69.8 94% 30.01 0.0
22 04:15 Calm 10.00 Mostly Cloudy BKN090 71.6 69.8 94% 30.01 0.0
22 03:55 Calm 10.00 Mostly Cloudy SCT046 SCT060 BKN075 71.6 69.8 94% 30 0.0
22 03:35 Calm 10.00 Overcast SCT047 BKN060 OVC100 71.6 69.8 94% 30 0.0
22 03:15 Calm 10.00 Mostly Cloudy SCT044 BKN060 BKN100 71.6 69.8 94% 30.01 0.0
22 02:55 Calm 10.00 Mostly Cloudy SCT044 BKN060 BKN070 71.6 69.8 94% 30.01 0.0
22 02:35 Calm 10.00 Overcast OVC060 71.6 69.8 94% 30.01 0.0
22 02:15 Calm 10.00 Overcast OVC060 71.6 69.8 94% 30.02 0.0
22 01:55 Calm 10.00 Mostly Cloudy BKN060 71.6 69.8 94% 30.02 0.0
22 01:35 Calm 10.00 Fair CLR 71.6 69.8 94% 30.02 0.0
22 01:15 Calm 10.00 Fair CLR 71.6 69.8 94% 30.03 0.0
22 00:55 Calm 10.00 Fair CLR 73.4 69.8 89% 30.03 0.0
22 00:35 Calm 10.00 Fair CLR 73.4 69.8 89% 30.04 0.0
22 00:15 Calm 10.00 Partly Cloudy SCT060 73.4 69.8 89% 30.05 0.0
21 23:55 Calm 10.00 Mostly Cloudy BKN060 73.4 69.8 89% 30.05 0.0
21 23:35 Calm 10.00 Fair CLR 73.4 69.8 89% 30.05 0.0
21 23:15 Calm 10.00 Partly Cloudy SCT055 SCT075 73.4 71.6 94% 30.04 0.0
21 22:55 Calm 10.00 Partly Cloudy SCT055 73.4 71.6 94% 30.05 0.0
21 22:35 Calm 10.00 Partly Cloudy SCT055 SCT090 73.4 71.6 94% 30.04 0.0
21 22:15 Calm 10.00 Mostly Cloudy SCT038 SCT055 BKN090 75.2 71.6 89% 75 30.04 0.0
21 21:55 Calm 10.00 Overcast SCT038 BKN055 OVC090 77 69.8 79% 79 30.03 0.0
21 21:35 Calm 10.00 Overcast SCT055 OVC075 77 71.6 83% 78 30.02 0.0
21 21:15 Calm 10.00 Overcast SCT032 SCT055 OVC065 77 69.8 79% 79 30.02 0.0
21 20:55 Calm 10.00 Overcast SCT032 OVC065 77 71.6 83% 78 30.02 0.0
21 20:35 Calm 10.00 Overcast OVC055 77 69.8 79% 79 30.01 0.0
21 20:15 Calm 10.00 Mostly Cloudy BKN055 BKN070 77 69.8 79% 79 30.01 0.0
21 19:55 Calm 10.00 Partly Cloudy SCT070 78.8 69.8 74% 81 30.01 0.0
21 19:35 SE 5 10.00 Mostly Cloudy BKN070 78.8 69.8 74% 81 30 0.0
21 19:15 SE 7 10.00 Partly Cloudy SCT049 SCT070 SCT085 80.6 69.8 70% 84 30.01 0.0
21 18:55 SE 7 10.00 Overcast SCT037 BKN049 OVC070 78.8 69.8 74% 81 30 0.0
21 18:35 SE 8 10.00 Overcast SCT027 BKN036 OVC045 78.8 69.8 74% 81 30 0.0
21 18:15 SE 8 10.00 Overcast BKN025 OVC060 80.6 69.8 70% 84 30 0.0
21 17:55 N 5 10.00 Overcast SCT027 OVC060 80.6 69.8 70% 84 30 0.0
21 17:35 N 6 10.00 Mostly Cloudy BKN060 80.6 69.8 70% 84 30 0.0
21 17:15 N 6 10.00 Overcast OVC050 82.4 69.8 66% 86 30 0.0
21 16:55 N 6 10.00 Overcast SCT025 SCT033 OVC050 80.6 69.8 70% 84 30 0.0
21 16:35 N 5 10.00 Overcast SCT030 BKN034 OVC090 80.6 69.8 70% 84 30 0.0
21 16:15 E 6 10.00 Mostly Cloudy SCT028 SCT055 BKN090 82.4 68 62% 85 30.01 0.0
21 15:55 SE 8 10.00 Partly Cloudy SCT028 SCT070 82.4 68 62% 85 30.01 0.0
21 15:35 SE 7 10.00 Partly Cloudy SCT024 82.4 68 62% 85 30.02 0.0
21 15:15 SE 3 10.00 Mostly Cloudy BKN022 80.6 68 66% 83 30.03 0.0
21 14:55 Calm 10.00 Partly Cloudy SCT020 SCT065 80.6 69.8 70% 84 30.03 0.0
21 14:35 NE 5 10.00 Partly Cloudy SCT016 78.8 68 70% 81 30.05 0.0
21 14:15 Calm 10.00 Mostly Cloudy BKN014 78.8 69.8 74% 81 30.05 0.0
21 13:55 Calm 10.00 Mostly Cloudy BKN012 BKN095 77 69.8 79% 79 30.06 0.0
21 13:35 NE 5 10.00 Mostly Cloudy SCT010 BKN095 77 69.8 79% 79 30.07 0.0
21 13:15 Calm 10.00 Mostly Cloudy BKN010 BKN030 BKN050 75.2 69.8 83% 75 30.07 0.0
21 12:55 Calm 10.00 Light Rain SCT032 BKN050 OVC070 73.4 68 83% 30.08 0.0 0.01
21 12:35 S 3 10.00 Light Drizzle SCT009 BKN028 OVC050 73.4 69.8 89% 30.08 0.0 0.01
21 12:15 Calm 10.00 Light Rain BKN010 BKN022 OVC080 71.6 69.8 94% 30.09 0.0
21 11:55 S 5 10.00 Overcast SCT008 BKN031 OVC050 71.6 68 88% 30.09 0.0 0.04
21 11:35 S 5 10.00 Light Rain SCT008 BKN040 OVC085 71.6 69.8 94% 30.1 0.0 0.04
21 11:15 S 3 5.00 Light Rain SCT004 BKN070 OVC095 69.8 68 94% 30.1 0.0 0.03
21 10:55 Calm 4.00 Light Rain SCT006 BKN070 OVC085 69.8 68 94% 30.1 0.0 0.16
21 10:35 S 3 2.00 Rain BKN004 BKN010 OVC070 69.8 68 94% 30.12 0.0 0.11
21 10:15 S 3 2.50 Rain SCT002 SCT034 OVC070 69.8 68 94% 30.12 0.0 0.05
21 09:55 Calm 1.25 Rain BKN012 BKN025 OVC039 69.8 68 94% 30.12 0.0 0.75
21 09:35 Calm 0.25 Heavy Rain OVC004 69.8 68 94% 30.12 0.0 0.47
21 09:15 Calm 1.25 Heavy Rain BKN004 OVC044 69.8 68 94% 30.11 0.0 0.08
21 08:55 Calm 5.00 Light Rain SCT042 BKN055 OVC090 69.8 68 94% 30.1 0.0 0.06
21 08:35 Calm 5.00 Light Rain SCT043 SCT055 OVC090 69.8 68 94% 30.08 0.0 0.05
21 08:15 N 3 5.00 Rain SCT039 BKN065 OVC090 69.8 68 94% 30.08 0.0 0.01
21 07:55 N 5 3.00 Light Rain SCT039 BKN048 OVC090 69.8 68 94% 30.08 0.0 0.39
21 07:35 Calm 3.00 Thunderstorm Rain SCT017 BKN070 OVC080 69.8 68 94% 30.08 0.0 0.29
21 07:15 Calm 5.00 Thunderstorm Heavy Rain SCT040 BKN050 OVC070 71.6 68 88% 30.08 0.0 0.06
21 06:55 W 5 5.00 Thunderstorm Heavy Rain in Vicinity SCT038 BKN050 OVC080 71.6 68 88% 30.08 0.0 0.08
21 06:35 W 3 10.00 Rain OVC080 71.6 69.8 94% 30.05 0.0
21 06:15 Calm 10.00 Thunderstorm Drizzle in Vicinity OVC090 73.4 69.8 89% 30.03 0.0
21 05:35 Calm 10.00 Overcast BKN090 OVC100 73.4 68 83% 30.03 0.0
21 05:15 Calm 10.00 Overcast SCT070 BKN090 OVC110 73.4 68 83% 30.03 0.0
21 04:55 Calm 10.00 Partly Cloudy SCT070 SCT090 SCT110 71.6 68 88% 30.02 0.0
21 04:35 Calm 10.00 Fair CLR 73.4 69.8 89% 30.01 0.0
21 04:15 Calm 10.00 Fair CLR 71.6 68 88% 30.01 0.0
21 03:55 Calm 10.00 Fair CLR 73.4 68 83% 30.01 0.0
21 03:35 Calm 10.00 Fair CLR 73.4 68 83% 30.02 0.0
21 03:15 Calm 10.00 Fair CLR 75.2 68 78% 76 30.02 0.0
21 02:55 Calm 10.00 Partly Cloudy SCT060 73.4 68 83% 30.02 0.0
21 02:35 Calm 10.00 Fair CLR 73.4 68 83% 30.03 0.0
21 02:15 Calm 10.00 Fair CLR 75.2 66.2 74% 77 30.03 0.0
21 01:55 Calm 10.00 Fair CLR 73.4 68 83% 30.04 0.0
21 01:35 Calm 10.00 Fair CLR 73.4 68 83% 30.04 0.0
21 01:15 Calm 10.00 Fair CLR 71.6 68 88% 30.05 0.0
21 00:55 Calm 10.00 Fair CLR 73.4 68 83% 30.05 0.0
Date Time (cdt) Wind (mph) Vis. (mi.) Weather Sky Cond. Air Dwpt Max. Min. Relative Humidity Wind Chill (°F) Heat Index (°F) altimeter (in) sea level (mb) 1 hr 3 hr 6 hr
6 hour
Temperature (ºF) Pressure Precipitation (in)